Wind_Speed
34 33 33 33 33 33 33 33 34 34 34 33 32 32 32 32 31 32 32 32 33 33 33 34 35 36 36 37 37 38 39 39 40 40 40 40 39 39 39 39 39 39 38 38
32 31 32 32 31 32 32 31 33 33 32 31 32 32 32 32 32 32 33 33 33 33 34 34 34 35 35 36 36 37 38 38 39 39 39 39 39 38 38 39 39 39 38 38
32 30 31 31 29 31 32 31 31 31 30 30 30 30 30 31 31 31 31 32 32 33 33 33 34 34 34 34 34 36 37 37 38 38 39 39 39 39 38 39 39 39 39 39
31 31 31 30 29 29 30 30 30 30 30 31 31 31 31 31 31 32 32 32 32 32 33 32 33 34 33 33 34 35 36 36 36 37 37 37 37 38 38 38 38 39 39 39
30 30 30 29 29 29 29 29 29 29 29 30 30 30 30 30 30 31 31 32 32 33 33 33 33 34 34 34 35 35 35 35 35 36 36 37 37 37 37 37 38 38 39 39
28 27 27 28 29 30 30 30 30 30 30 30 30 30 30 30 30 30 31 31 32 32 33 33 34 35 35 35 35 35 35 36 35 36 36 37 37 38 38 38 39 39 39 39
26 25 25 26 27 28 30 31 30 31 30 30 30 31 30 30 30 30 31 32 32 32 33 34 35 35 36 36 36 36 36 36 36 36 36 37 38 38 39 39 39 39 38 38
25 25 25 25 25 26 27 28 29 29 29 29 29 29 29 29 29 30 31 32 32 33 33 34 35 35 36 37 37 37 37 37 37 37 37 38 39 39 39 39 39 39 39 38
25 25 25 25 25 25 26 27 28 29 30 29 29 29 29 29 29 30 30 31 32 33 33 33 34 34 35 36 37 37 38 38 38 38 38 38 39 39 38 38 38 39 39 38
26 25 25 25 25 26 26 26 27 29 29 29 28 27 28 29 29 29 30 30 31 31 31 32 32 33 34 35 35 36 37 37 38 38 38 37 38 38 37 37 37 37 37 37
25 24 24 24 25 25 25 24 25 26 27 28 27 27 26 26 28 29 29 30 30 30 30 30 30 31 32 33 33 33 34 35 36 36 36 36 36 37 37 36 36 36 36 36
23 24 24 24 24 24 24 24 24 24 25 26 26 26 27 27 27 28 29 29 29 29 29 29 29 30 30 31 31 31 31 32 33 33 34 34 35 35 35 35 35 35 36 36
24 24 24 24 24 24 24 24 24 24 24 24 25 26 27 27 27 28 28 29 30 30 30 30 30 30 30 31 31 30 30 30 31 31 32 33 33 34 34 34 34 34 35 35
23 23 23 23 23 24 24 23 24 24 24 24 24 25 25 25 26 27 28 28 29 30 30 30 30 30 30 30 30 30 30 30 30 31 32 32 32 33 33 33 33 33 34 34
23 23 23 22 23 23 24 24 24 24 25 25 25 25 25 25 26 27 27 27 28 28 29 29 29 29 30 29 30 30 30 30 30 31 31 31 31 32 32 32 33 33 33 33
21 21 21 22 22 23 24 23 23 23 23 24 24 24 24 25 26 27 27 27 27 27 27 28 28 28 28 28 29 29 29 29 29 30 30 30 31 31 31 31 32 33 33 34
20 20 20 21 22 22 23 22 21 21 22 22 22 23 23 24 25 26 27 27 27 27 27 27 27 27 27 27 27 28 28 28 28 28 29 29 29 30 31 31 32 32 33 34
20 20 20 21 21 21 22 22 21 21 22 22 23 23 24 24 24 25 26 27 27 27 26 26 26 26 26 26 27 27 27 27 28 28 28 28 29 29 30 30 31 32 32 32
21 21 21 22 22 23 23 22 22 22 22 23 23 23 24 24 24 24 25 25 25 25 25 25 26 26 26 26 26 26 27 27 27 27 27 27 28 29 29 29 30 30 31 31
21 21 22 23 24 23 23 22 22 22 22 23 24 24 24 24 24 24 24 24 24 25 25 26 26 26 26 26 26 26 26 26 26 26 26 27 27 28 28 28 28 29 30 30
22 22 22 22 22 22 22 21 22 22 23 24 24 24 24 24 24 23 24 24 24 24 24 25 25 26 26 26 25 25 25 25 25 26 26 26 26 26 26 27 27 27 28 28
22 22 22 22 22 22 22 22 22 23 23 24 23 23 23 23 23 23 23 23 23 23 24 24 25 25 26 26 25 25 25 25 25 26 26 25 25 26 26 26 26 27 27 28
22 22 21 22 22 22 22 22 23 23 23 23 23 22 22 22 22 22 22 23 23 23 23 23 24 25 25 26 26 26 26 26 25 25 25 25 26 26 26 26 27 27 27 27
22 22 21 21 21 22 22 22 22 22 22 21 21 20 20 20 21 21 22 23 23 23 23 24 24 25 25 26 26 26 26 26 25 25 25 25 25 26 26 26 26 26 26 26
21 21 21 21 21 21 21 21 20 20 20 20 20 19 19 20 20 21 21 21 22 22 23 23 23 24 25 25 25 25 25 25 25 25 25 25 25 25 25 25 24 24 24 24
20 20 20 20 20 19 19 19 18 18 18 19 19 19 19 19 19 19 20 20 21 21 21 22 22 23 23 23 24 24 25 25 25 25 25 25 25 25 24 24 24 24 23 23
20 19 19 19 19 19 18 18 17 17 18 18 18 18 18 18 18 18 19 19 19 19 20 20 21 21 21 22 22 23 24 24 24 25 25 25 24 24 24 24 24 24 23 23
Wind_Direction
278 277 275 272 270 267 264 263 264 264 263 264 263 262 261 261 259 258 257 257 257 256 255 254 253 254 254 254 254 254 256 257 258 259 260 260 261 262 263 264 265 265 264 264
278 277 276 272 270 267 265 264 264 264 264 263 263 262 261 259 256 256 255 255 255 255 254 254 253 253 254 255 256 256 257 258 259 259 259 259 259 261 262 264 264 264 264 265
280 277 274 270 269 266 266 265 264 264 264 262 261 261 260 258 256 256 256 255 256 255 254 253 252 253 254 255 255 256 258 258 259 259 259 259 260 261 262 263 263 263 264 265
282 278 273 271 269 267 265 264 263 263 262 262 262 262 261 259 257 257 257 256 255 255 254 253 252 252 253 254 255 256 258 258 259 260 259 259 260 261 262 262 263 264 264 265
285 281 277 273 268 266 265 262 262 261 260 260 260 261 262 262 260 258 257 256 256 256 255 253 253 253 255 255 256 257 258 260 261 261 260 260 261 262 262 263 264 264 265 266
285 281 279 276 271 267 265 263 262 261 260 260 260 259 259 260 260 258 257 257 256 255 255 255 254 254 254 255 257 258 259 260 261 262 262 263 263 263 263 264 264 265 265 266
283 280 280 279 276 271 267 265 263 263 262 262 262 261 260 259 259 259 257 257 258 257 257 257 257 256 256 257 258 258 259 261 262 262 263 265 265 265 265 265 265 265 266 266
285 282 280 278 276 274 271 267 266 265 264 262 261 261 260 259 258 257 257 258 258 259 259 259 259 259 259 259 258 259 260 261 263 263 264 265 266 266 266 266 266 266 266 267
286 285 282 279 278 277 275 271 268 266 265 265 263 262 261 260 260 259 260 261 261 261 260 261 262 262 260 260 261 261 261 262 264 265 265 266 266 267 267 267 266 266 267 267
284 283 282 280 278 279 277 274 270 267 266 265 266 264 261 259 259 261 262 262 261 260 261 263 263 263 262 263 264 264 263 263 265 265 265 265 266 266 267 267 267 267 266 267
281 282 281 280 280 281 280 277 273 269 266 266 266 264 263 261 260 261 263 263 262 261 262 263 264 264 264 265 265 265 265 265 265 265 264 265 266 267 267 268 268 268 268 267
282 281 282 282 281 282 281 279 277 273 269 266 264 262 261 262 263 263 263 262 263 263 263 264 265 266 266 266 265 265 265 265 265 265 265 266 266 267 267 269 270 269 268 268
285 286 284 284 283 281 281 279 277 275 272 269 266 264 262 262 263 264 263 262 262 263 264 265 266 266 267 267 267 266 266 265 265 265 265 265 266 267 267 268 269 269 268 267
286 287 286 285 284 282 281 280 279 277 272 270 267 266 266 265 264 264 265 265 264 263 264 265 266 266 267 267 267 267 267 267 268 268 268 268 268 268 268 268 268 269 268 268
286 288 288 287 284 282 283 283 281 277 273 270 269 268 268 267 266 265 266 267 267 265 264 265 266 266 266 267 267 266 266 267 269 270 270 269 269 269 268 268 268 269 269 268
288 288 288 288 287 286 284 284 282 278 273 272 271 270 271 269 267 265 266 267 267 266 266 266 266 266 267 267 267 267 266 267 269 270 270 270 270 269 269 269 269 269 269 270
288 286 286 288 289 288 286 284 281 277 275 274 272 272 273 272 269 267 267 268 267 266 267 266 266 266 267 268 268 267 267 268 268 269 270 270 270 271 270 270 271 271 271 271
287 287 288 289 290 289 288 284 279 277 276 276 274 274 273 273 273 272 270 269 268 267 266 266 265 266 267 268 268 267 267 267 268 269 270 271 271 272 271 272 271 271 271 271
288 288 289 289 290 290 287 283 280 278 278 278 277 276 275 276 276 275 273 270 267 266 266 265 265 266 267 268 268 267 267 268 268 269 271 273 273 272 272 272 272 272 271 271
292 292 292 291 291 291 288 283 280 279 280 280 279 278 277 277 276 275 274 272 269 267 266 266 266 266 267 268 269 269 269 268 268 270 272 274 274 274 273 273 273 272 272 272
294 294 295 294 293 292 287 284 282 282 283 283 281 279 278 277 276 275 273 271 269 268 267 267 267 266 266 267 268 269 269 269 269 271 272 273 274 274 275 275 275 275 274 274
294 295 295 295 295 292 288 286 285 285 286 286 284 282 280 279 278 276 274 272 271 270 269 268 267 265 265 266 267 269 270 271 272 272 272 273 275 276 276 277 278 277 277 277
295 296 295 294 294 292 289 288 288 288 288 286 285 284 282 280 278 276 275 274 274 273 271 270 269 268 267 267 269 270 271 273 274 274 274 275 277 278 279 280 280 280 280 280
296 296 295 295 295 293 291 290 291 291 290 288 287 285 283 281 280 279 278 276 275 274 273 272 271 270 269 269 269 270 271 273 274 275 276 277 278 279 280 281 282 282 281 281
295 295 295 295 295 294 293 293 293 293 292 290 289 288 286 284 282 281 280 279 278 276 275 274 274 272 271 269 269 269 270 272 273 275 277 278 279 280 280 281 280 280 281 282
297 296 295 295 295 294 294 294 293 294 294 293 291 290 290 288 285 283 283 282 281 279 278 277 275 274 273 271 270 269 269 271 272 274 276 277 278 279 279 279 279 279 280 281
301 300 298 298 298 297 296 294 293 294 296 296 295 294 293 292 289 287 286 285 284 283 281 279 277 276 274 273 271 270 271 272 273 274 275 276 277 278 279 279 278 278 278 279
Height
5561 5560 5560 5560 5560 5561 5561 5561 5561 5564 5565 5567 5568 5568 5569 5570 5571 5572 5574 5575 5577 5578 5579 5581 5582 5584 5586 5587 5589 5591 5593 5595 5597 5598 5600 5602 5604 5605 5607 5608 5609 5609 5610 5611
5553 5552 5550 5550 5551 5552 5552 5552 5553 5554 5556 5557 5558 5559 5560 5561 5562 5563 5565 5566 5568 5569 5570 5572 5573 5575 5576 5578 5579 5581 5583 5584 5586 5588 5590 5591 5593 5594 5596 5597 5598 5599 5600 5601
5544 5543 5541 5542 5544 5543 5543 5544 5544 5545 5548 5548 5548 5549 5551 5552 5553 5554 5555 5557 5558 5559 5560 5562 5564 5565 5567 5568 5570 5571 5573 5574 5576 5577 5579 5581 5582 5584 5585 5586 5587 5588 5589 5590
5534 5535 5534 5537 5536 5535 5535 5536 5536 5536 5538 5538 5539 5540 5542 5543 5544 5545 5546 5548 5549 5550 5551 5553 5554 5556 5557 5559 5560 5562 5563 5564 5566 5567 5568 5570 5571 5573 5574 5575 5576 5577 5578 5578
5526 5525 5525 5527 5527 5527 5527 5528 5528 5528 5529 5530 5531 5532 5533 5534 5535 5536 5537 5538 5540 5541 5542 5543 5545 5546 5548 5549 5551 5552 5553 5554 5555 5557 5558 5559 5560 5562 5563 5564 5565 5566 5566 5567
5519 5518 5518 5519 5518 5518 5519 5519 5519 5519 5520 5521 5522 5524 5526 5526 5526 5527 5528 5529 5530 5532 5533 5534 5535 5537 5538 5540 5541 5542 5544 5545 5546 5546 5548 5549 5550 5551 5552 5553 5554 5554 5555 5555
5512 5510 5510 5511 5509 5510 5511 5512 5511 5511 5512 5513 5513 5515 5516 5517 5517 5518 5519 5520 5521 5523 5524 5525 5526 5527 5529 5530 5531 5532 5534 5535 5536 5536 5537 5538 5539 5540 5540 5541 5542 5543 5544 5544
5506 5505 5506 5503 5502 5502 5502 5501 5502 5502 5503 5504 5505 5505 5506 5507 5508 5509 5510 5512 5512 5514 5515 5515 5516 5518 5519 5520 5521 5522 5523 5524 5525 5526 5526 5527 5528 5528 5529 5530 5531 5531 5532 5533
5500 5500 5497 5495 5494 5494 5493 5493 5493 5494 5495 5495 5496 5497 5497 5498 5499 5500 5501 5502 5503 5504 5505 5506 5507 5508 5509 5509 5510 5511 5512 5513 5514 5515 5515 5516 5516 5517 5517 5518 5518 5519 5520 5521
5493 5492 5490 5489 5488 5487 5486 5485 5485 5485 5486 5487 5487 5488 5489 5489 5490 5491 5492 5493 5494 5495 5496 5496 5497 5498 5498 5499 5500 5501 5502 5502 5503 5504 5504 5505 5505 5506 5506 5506 5507 5507 5508 5509
5486 5485 5484 5483 5481 5480 5479 5478 5477 5477 5478 5478 5479 5480 5480 5480 5481 5482 5483 5484 5485 5486 5487 5487 5488 5488 5489 5489 5490 5491 5491 5492 5492 5493 5494 5494 5494 5495 5495 5495 5495 5496 5497 5498
5480 5479 5477 5476 5475 5473 5472 5471 5470 5470 5470 5470 5470 5471 5472 5473 5473 5474 5475 5476 5476 5477 5478 5478 5479 5479 5480 5480 5480 5481 5481 5482 5482 5483 5483 5484 5484 5485 5484 5485 5485 5485 5485 5486
5473 5472 5470 5469 5468 5466 5465 5464 5463 5463 5463 5462 5463 5463 5464 5464 5465 5466 5466 5467 5468 5469 5469 5469 5470 5470 5470 5471 5471 5471 5472 5472 5472 5472 5473 5473 5474 5474 5475 5475 5474 5474 5474 5475
5466 5465 5464 5462 5461 5460 5458 5457 5456 5456 5455 5455 5455 5455 5456 5456 5457 5458 5458 5458 5459 5460 5460 5460 5461 5461 5461 5461 5462 5462 5462 5462 5463 5463 5463 5463 5464 5464 5464 5464 5465 5464 5464 5465
5460 5459 5457 5455 5454 5453 5451 5450 5449 5448 5448 5448 5448 5448 5448 5448 5449 5449 5450 5450 5450 5451 5451 5452 5452 5452 5452 5452 5452 5453 5453 5453 5453 5454 5454 5454 5454 5454 5454 5454 5454 5454 5455 5455
5455 5453 5451 5449 5448 5446 5445 5443 5442 5441 5441 5440 5440 5440 5440 5440 5441 5441 5442 5442 5442 5442 5442 5443 5443 5443 5443 5443 5443 5444 5444 5444 5444 5444 5444 5444 5444 5444 5444 5444 5444 5444 5445 5445
5449 5447 5445 5444 5442 5440 5438 5437 5436 5435 5434 5434 5433 5433 5433 5433 5433 5433 5433 5434 5434 5434 5434 5434 5434 5434 5434 5434 5435 5435 5435 5435 5435 5435 5435 5435 5435 5435 5435 5435 5434 5435 5435 5435
5443 5441 5439 5438 5436 5434 5432 5431 5429 5429 5428 5427 5427 5427 5426 5426 5426 5425 5425 5425 5425 5426 5426 5426 5426 5426 5426 5426 5426 5426 5426 5426 5426 5426 5426 5426 5426 5426 5425 5425 5425 5425 5425 5425
5437 5435 5433 5431 5430 5428 5426 5424 5423 5422 5422 5421 5420 5420 5419 5418 5418 5418 5417 5417 5417 5417 5418 5418 5418 5418 5418 5418 5418 5418 5418 5418 5418 5418 5418 5417 5417 5416 5416 5416 5415 5415 5415 5415
5431 5429 5427 5425 5423 5421 5420 5418 5417 5416 5415 5414 5413 5412 5412 5411 5410 5410 5409 5409 5409 5409 5409 5409 5409 5410 5410 5410 5410 5410 5410 5410 5410 5409 5409 5409 5408 5407 5407 5407 5406 5406 5405 5405
5425 5423 5421 5419 5417 5415 5413 5411 5410 5409 5408 5407 5406 5405 5404 5403 5402 5402 5401 5401 5401 5401 5401 5401 5401 5402 5402 5402 5402 5402 5402 5402 5401 5401 5401 5400 5400 5399 5399 5398 5397 5397 5396 5396
5420 5417 5415 5413 5411 5409 5407 5405 5404 5402 5401 5399 5398 5397 5396 5395 5395 5394 5393 5393 5393 5393 5393 5393 5393 5393 5394 5394 5394 5394 5394 5394 5394 5393 5393 5392 5392 5391 5390 5390 5389 5388 5388 5387
5413 5411 5409 5407 5405 5403 5401 5399 5397 5396 5394 5392 5391 5389 5388 5388 5387 5387 5386 5386 5385 5385 5385 5385 5385 5385 5385 5386 5386 5386 5386 5386 5386 5385 5385 5384 5384 5383 5382 5381 5381 5380 5379 5378
5407 5405 5403 5401 5398 5396 5394 5392 5391 5389 5387 5385 5384 5383 5382 5381 5380 5379 5378 5378 5377 5377 5377 5377 5377 5377 5377 5377 5378 5378 5377 5377 5377 5376 5376 5376 5375 5374 5374 5373 5372 5371 5371 5370
5401 5399 5397 5395 5393 5390 5388 5387 5385 5383 5381 5379 5378 5376 5375 5374 5373 5372 5371 5371 5370 5369 5369 5369 5369 5369 5369 5369 5369 5369 5369 5369 5369 5368 5368 5367 5367 5366 5365 5365 5364 5363 5363 5362
5395 5393 5391 5389 5387 5385 5383 5381 5379 5378 5376 5374 5372 5371 5369 5368 5366 5365 5364 5363 5363 5362 5361 5361 5361 5360 5360 5360 5360 5360 5360 5360 5360 5360 5359 5359 5359 5358 5357 5357 5356 5356 5355 5354
5390 5387 5385 5383 5381 5379 5377 5376 5374 5373 5371 5369 5367 5365 5364 5362 5360 5359 5358 5357 5356 5355 5354 5354 5353 5352 5352 5352 5352 5352 5352 5352 5352 5351 5351 5351 5350 5350 5349 5349 5348 5348 5347 5347